Погода в Бониту

Бразилия     8°27′46″S   35°43′19″W
темп.,
°C
ветер,
м/с
пор.,
м/с
влажн.,
%
обл.,
%
осадки,
мм/ч
давл.,
гПа
погр.,
м
27 февраля, сб
сб2700:00+21всв119310 0.0 101227
03:00+21св119328 0.1 101123
06:00+21всв11900 0.0 101240
09:00+27вюв44635 0.0 1013970
12:00+30вюв545069 0.3 10111538
15:00+28вюв666070 2.6 10091183
18:00+24вюв577771 0.8 1010639
21:00+22вюв268686 0.8 1011446
28 февраля, вс
вс2800:00+22вюв118999 0.0 101123
03:00+21юв119468 0.0 101023
06:00+21юв119431 0.0 101188
09:00+26вюв456436 0.1 10121024
12:00+29вюв555275 0.1 10101470
15:00+29вюв665170 0.3 10081440
18:00+24вюв57766 0.0 1009619
21:00+22вюв24939 0.1 1010224
1 марта, пн
пн100:00+21в11969 0.1 101023
03:00+21вюв11978 0.3 100824
06:00+21вюв119516 0.0 1009106
09:00+27в456127 0.0 10111065
12:00+27вюв676582 2.7 1010999
15:00+26вюв786991 4.7 1008973
18:00+23вюв588695 0.3 1009619
21:00+21вюв379387 0.4 1011415
2 марта, вт
вт200:00+21вюв129610 0.1 101185
03:00+20в129717 0.5 101058
06:00+21вюв149512 0.2 1011235
09:00+26юв446927 0.5 1013826
12:00+29юв455570 0.8 10121311
15:00+28юв565378 1.6 10101436
18:00+24вюв587796 0.3 1011617
21:00+22вюв259364 0.3 1013274
3 марта, ср
ср300:00+21в119621 0.1 101323
03:00+20в019621 0.1 101223
06:00+21с019363 0.0 101361
09:00+27в456177 0.0 10151070
12:00+30вюв454881 0.1 10131565
15:00+28вюв566070 1.8 10111166
18:00+23вюв478651 1.2 1012483
21:00+22вюв269745 1.4 1014363